EDT,Max TemperatureF,Mean TemperatureF,Min TemperatureF,Max Dew PointF,MeanDew PointF,Min DewpointF,Max Humidity, Mean Humidity, Min Humidity, Max Sea Level PressureIn, Mean Sea Level PressureIn, Min Sea Level PressureIn, Max VisibilityMiles, Mean VisibilityMiles, Min VisibilityMiles, Max Wind SpeedMPH, Mean Wind SpeedMPH, Max Gust SpeedMPH,PrecipitationIn, CloudCover, Events, WindDirDegrees
2012-9-1,88,81,75,78,75,71,91,83,70,30.15,30.09,30.03,10,10,9,9,6,,0.00,1,,244
2012-9-2,88,81,75,77,73,71,91,79,66,30.05,30.02,29.98,10,10,9,8,5,,0.00,2,Rain-Thunderstorm,92
2012-9-3,82,78,75,77,75,73,94,87,74,30.10,30.05,30.00,10,9,3,10,4,,0.04,4,Rain-Thunderstorm,206
2012-9-4,84,78,73,75,73,70,93,80,67,30.08,30.04,29.99,10,10,6,17,5,,0.01,2,Rain,208
2012-9-5,84,80,77,74,72,70,84,75,69,30.01,29.97,29.93,10,10,9,15,10,24,0.00,3,Rain,216
2012-9-6,84,82,80,76,74,73,79,76,70,29.99,29.95,29.92,10,10,7,15,12,21,0.00,2,,217
2012-9-7,82,76,71,75,72,70,94,87,79,29.99,29.97,29.94,7,7,7,8,5,,0.00,5,,23
2012-9-8,84,82,81,76,75,74,79,77,72,29.88,29.87,29.85,10,10,10,14,11,20,0.00,3,,207
2012-9-9,,,,,,,,,,,,,,,,,,,,,,
2012-9-10,79,71,64,57,54,51,75,52,39,30.08,30.07,30.05,10,10,10,12,8,21,0.00,0,,348
2012-9-11,78,70,62,57,53,49,80,54,37,30.30,30.27,30.25,10,8,7,10,7,16,0.00,2,,13
2012-9-12,79,70,62,60,59,57,86,60,47,30.35,30.33,30.29,10,10,10,12,8,,0.00,3,,23
2012-9-13,81,74,66,65,63,62,84,63,54,30.32,30.28,30.22,10,7,7,10,9,17,0.00,3,,30
2012-9-14,81,76,70,69,69,68,93,75,65,30.22,30.20,30.15,10,10,10,12,9,,0.00,6,,67
2012-9-15,,,,,,,,,,,,,,,,,,,,,,
2012-9-16,,,,,,,,,,,,,,,,,,,,,,
2012-9-17,79,74,70,70,68,65,87,75,66,30.13,30.10,30.06,7,7,7,15,7,18,0.00,5,,152
2012-9-18,84,80,71,73,72,70,94,79,65,29.93,29.89,29.83,10,7,2,23,18,34,0.18,7,Rain,194
2012-9-19,78,68,64,70,63,57,93,77,65,30.10,30.02,29.87,10,9,6,13,7,21,0.00,6,,11
2012-9-20,78,70,63,62,60,57,87,73,58,30.13,30.09,30.06,10,10,10,9,6,,0.00,5,,6
2012-9-21,77,68,60,62,60,56,96,76,54,30.11,30.08,30.04,10,10,10,8,3,,0.00,2,,28
2012-9-22,79,70,62,66,63,59,93,77,60,30.06,30.03,29.98,10,10,10,13,3,,0.00,0,,225
2012-9-23,78,72,64,69,63,59,90,73,56,30.12,30.05,29.98,10,10,10,12,7,17,0.00,3,,4
2012-9-24,79,65,57,54,50,45,84,61,38,30.22,30.18,30.12,10,10,10,12,6,18,0.00,1,,28
2012-9-25,79,67,55,61,56,48,78,59,44,30.28,30.24,30.21,10,9,7,9,5,,0.00,2,,95
2012-9-26,77,67,57,61,58,54,90,68,50,30.26,30.22,30.20,10,10,10,7,3,,0.00,1,,154
2012-9-27,80,70,61,66,62,59,97,83,56,30.22,30.19,30.14,10,10,7,9,2,,0.00,1,,340
2012-9-28,81,72,62,68,64,60,100,80,52,30.14,30.09,30.03,10,9,4,9,3,,0.01,2,,223
2012-9-29,75,70,66,69,66,64,94,87,73,30.01,29.95,29.89,10,8,1,8,5,,0.21,4,Rain-Thunderstorm,355
2012-9-30,73,68,63,65,63,61,100,88,73,29.93,29.90,29.87,10,7,2,8,5,,0.06,7,Rain,360